Find Starlink 34326

NORAD ID: 64221 Int'l Des: 2025-117 Owner: SPXS Country: US Constellation: starlink operational
LEOCIRCULAR

Live Position

Loading 3D Globe...

About Starlink 34326

Description loading...

Upcoming Passes

Passes for default location (London). Set your location on the main map for personalized predictions.

Altitude History

Loading altitude history...

Two-Line Element Set

1 64221U 25117U 26106.03702556 .00009402 00000-0 32914-3 0 9991
2 64221 53.1591 226.1326 0000676 89.2945 270.8133 15.30201699 50273
Epoch: Apr 16, 2026 • Age: 20 hours

Current Status

Altitude 478.2 km
Velocity 7.63 km/s
Sub-Earth Point -11.06°S, 102.42°W
Launch Date May 31, 2025
Age 0.8 years
Type internet

Technical Details

Classification Payload
Mass 575.00 kg
Dry Mass 530.00 kg
Total Mass 575.00 kg
Length 0.30 m
Diameter 4.10 m
Span 29.00 m
Shape Box + pan
Manufacturer SPXS
Bus Type Starlink V2MO
Phase Status In Orbit
Owner/State SPXS/US

Most Searched